ISS - Orbit

View from above orbital plane
View from above orbital plane
View from above satellite
View from above satellite

Ground track
Ground track

The orbit data is extracted from the following two-line orbital elements,

1 25544U 98067A   13168.89457380  .00004782  00000-0  89035-4 0   253
2 25544 051.6490 104.8373 0010824 078.0893 350.4341 15.50843195834818
Epoch (UTC): 17 June 2013 21:28:11
Eccentricity: 0.0010824
inclination: 51.6490°
perigee height: 407 km
apogee height: 421 km
right ascension of ascending node: 104.8373°
argument of perigee: 78.0893°
revolutions per day: 15.50843195
mean anomaly at epoch: 350.4341°
orbit number at epoch: 83481

The dashed part of the orbit path shows where the satellite is in the earth's shadow,  

Developed and maintained by Chris Peat, Heavens-Above GmbH. Please read the updated FAQ before sending e-mail. Imprint. DLR